Location: Rometta
(44.2000°N, 10.0500°E)
Time: 17:19:16
(UTC+00:00)

Meteor 2-10 Rocket - Pass Details

Date: 20 January 2021
Orbit: 733 x 885 km, 81.2° (Epoch: 28 February)

Event Time Altitude Azimuth Distance (km) Brightness Sun altitude
Rises 16:44:31 0° 356° (N) 3,414 6.7 -5.9°
Reaches altitude 10° 16:47:13 10° 6° (N) 2,451 5.8 -6.3°
Maximum altitude 16:52:13 34° 71° (ENE) 1,319 4.2 -7.2°
Drops below altitude 10° 16:57:00 10° 135° (SE) 2,343 5.8 -8.0°
Sets 16:59:31 0° 145° (SE) 3,243 6.6 -8.4°
